DW3384 Weather Reports


Display with metric or nautical units.
time (UTC)temp
F
wind
direction
speed
MPH
gust
MPH
rain 1hr
in
rain 24hr
in
rain mn
in
humidity
%
barometer
mb
20210620194609 98 213 0.0 0.0 0.00 0.00 0.00 30 995.5
20210620193141 97 206 0.0 0.0 0.00 0.00 0.00 30 995.5
20210620191543 97 236 0.0 0.0 0.00 0.00 0.00 30 995.6
20210620190017 96 241 0.0 0.0 0.00 0.00 0.00 30 995.8
20210620184518 96 269 0.0 0.0 0.00 0.00 0.00 31 996.0
20210620183031 95 191 0.0 0.0 0.00 0.00 0.00 31 996.2
20210620181503 95 206 0.0 0.0 0.00 0.00 0.00 33 996.5
20210620180148 94 241 0.0 0.0 0.00 0.00 0.00 32 996.8
20210620174616 94 272 0.0 0.0 0.00 0.00 0.00 33 996.9
20210620173238 93 244 0.0 0.0 0.00 0.00 0.00 33 997.0
20210620171652 93 263 0.0 0.0 0.00 0.00 0.00 34 997.1
20210620170131 92 271 0.0 0.0 0.00 0.00 0.00 36 997.1
20210620164619 91 229 0.0 0.0 0.00 0.00 0.00 36 997.1
20210620163106 91 226 0.0 0.0 0.00 0.00 0.00 37 997.1
20210620161612 90 267 0.0 0.0 0.00 0.00 0.00 38 997.2
20210620160104 88 266 0.0 0.0 0.00 0.00 0.00 39 997.3
20210620154622 88 250 0.0 0.0 0.00 0.00 0.00 40 997.4
20210620153039 87 275 0.0 0.0 0.00 0.00 0.00 43 997.4
20210620151539 85 271 0.0 0.0 0.00 0.00 0.00 42 997.5
20210620150029 85 261 0.0 0.0 0.00 0.00 0.00 44 997.4
20210620144540 84 259 0.0 0.0 0.00 0.00 0.00 45 997.5
20210620143029 82 265 0.0 0.0 0.00 0.00 0.00 48 997.6
20210620141524 81 243 0.0 0.0 0.00 0.00 0.00 51 997.5
20210620140028 79 246 0.0 0.0 0.00 0.00 0.00 53 997.5
20210620134537 78 250 0.0 0.0 0.00 0.00 0.00 56 997.6
20210620133014 77 234 0.0 0.0 0.00 0.00 0.00 57 997.6
20210620131526 75 238 0.0 0.0 0.00 0.00 0.00 64 997.6
20210620130013 73 253 0.0 0.0 0.00 0.00 0.00 69 997.6
20210620124533 72 263 0.0 0.0 0.00 0.00 0.00 71 997.7
20210620123111 71 263 0.0 0.0 0.00 0.00 0.00 71 997.7
20210620121513 72 258 0.0 0.0 0.00 0.00 0.00 70 997.5
20210620120010 72 260 0.0 0.0 0.00 0.00 0.00 69 997.6
20210620114506 73 261 0.0 0.0 0.00 0.00 0.00 67 997.6
20210620113002 74 261 0.0 0.0 0.00 0.00 0.00 65 997.4
20210620111501 74 265 0.0 0.0 0.00 0.00 0.00 65 997.4
20210620110137 75 265 0.0 0.0 0.00 0.00 0.00 64 997.3
20210620104657 75 267 0.0 0.0 0.00 0.00 0.00 64 997.4
20210620103130 75 266 0.0 0.0 0.00 0.00 0.00 63 997.3
20210620101630 76 262 0.0 0.0 0.00 0.00 0.00 63 997.4
20210620100113 76 246 0.0 0.0 0.00 0.00 0.00 62 997.4
20210620094621 76 244 0.0 0.0 0.00 0.00 0.00 62 997.4
20210620093140 77 225 0.0 0.0 0.00 0.00 0.00 61 997.1
20210620091623 77 217 0.0 0.0 0.00 0.00 0.00 61 997.2
20210620090216 77 232 0.0 0.0 0.00 0.00 0.00 60 997.5
20210620084648 77 227 0.0 0.0 0.00 0.00 0.00 60 997.7
20210620083055 77 237 0.0 0.0 0.00 0.00 0.00 60 998.0
20210620081558 77 234 0.0 0.0 0.00 0.00 0.00 59 998.0
20210620080100 78 222 0.0 0.0 0.00 0.00 0.00 57 998.1
20210620074557 78 212 0.0 0.0 0.00 0.00 0.00 56 998.1
20210620073107 78 194 0.0 0.0 0.00 0.00 0.00 55 998.1
20210620071641 79 196 0.0 0.0 0.00 0.00 0.00 53 998.2
20210620070043 79 174 0.0 0.0 0.00 0.00 0.00 51 998.6
20210620064530 79 190 0.0 0.0 0.00 0.00 0.00 50 998.7
20210620063104 80 360 0.0 0.0 0.00 0.00 0.00 48 999.0
20210620061531 80 192 0.0 0.0 0.00 0.00 0.00 47 999.1
20210620060021 81 360 0.0 0.0 0.00 0.00 0.00 46 999.0
20210620054523 81 360 0.0 0.0 0.00 0.00 0.00 45 998.4
20210620053028 82 197 0.0 0.0 0.00 0.00 0.00 44 998.6
20210620051515 82 201 0.0 0.0 0.00 0.00 0.00 44 998.6
20210620050015 82 168 0.0 0.0 0.00 0.00 0.00 44 998.3
20210620044512 81 163 0.0 0.0 0.00 0.00 0.00 44 998.5
20210620043104 81 157 0.0 0.0 0.00 0.00 0.00 46 998.5
20210620041509 81 360 0.0 0.0 0.00 0.00 0.00 46 998.6
20210620040025 82 360 0.0 0.0 0.00 0.00 0.00 45 998.6
20210620034543 83 360 0.0 0.0 0.00 0.00 0.00 44 998.5
20210620033021 83 360 0.0 0.0 0.00 0.00 0.00 42 998.3
20210620031511 84 166 0.0 0.0 0.00 0.00 0.00 42 998.2
20210620030007 84 360 0.0 0.0 0.00 0.00 0.00 42 998.0
20210620024518 85 150 0.0 0.0 0.00 0.00 0.00 40 997.9
20210620023033 86 149 0.0 0.0 0.00 0.00 0.00 38 997.8
20210620021515 88 162 0.0 0.0 0.00 0.00 0.00 37 997.8
20210620020005 89 360 0.0 0.0 0.00 0.00 0.00 36 997.6
20210620014518 90 179 0.0 0.0 0.00 0.00 0.00 34 997.5
20210620013017 90 121 0.0 0.0 0.00 0.00 0.00 33 997.4
20210620011507 91 186 0.0 0.0 0.00 0.00 0.00 32 997.3
20210620010006 92 360 0.0 0.0 0.00 0.00 0.00 29 997.2
20210620004509 93 360 0.0 0.0 0.00 0.00 0.00 28 997.1
20210620003135 94 147 0.0 0.0 0.00 0.00 0.00 28 997.0
20210620003001 94 360 0.0 0.0 0.00 0.00 0.00 28 997.0
20210620001653 95 156 0.0 0.0 0.00 0.00 0.00 27 996.9
20210620000157 95 149 0.0 0.0 0.00 0.00 0.00 27 997.0
20210619234647 96 157 0.0 0.0 0.00 0.00 0.00 28 997.1
20210619233121 96 360 0.0 0.0 0.00 0.00 0.00 27 997.2
20210619231638 96 360 0.0 0.0 0.00 0.00 0.00 29 997.3
20210619230131 97 159 0.0 0.0 0.00 0.00 0.00 27 997.5
20210619224720 97 184 0.0 0.0 0.00 0.00 0.00 27 997.7
20210619223119 97 159 0.0 0.0 0.00 0.00 0.00 27 997.7
20210619221555 97 195 0.0 0.0 0.00 0.00 0.00 28 997.9
20210619220115 97 203 0.0 0.0 0.00 0.00 0.00 27 998.0
20210619214604 97 191 0.0 0.0 0.00 0.00 0.00 27 998.1
20210619213057 97 198 0.0 0.0 0.00 0.00 0.00 28 998.4
20210619211620 98 155 0.0 0.0 0.00 0.00 0.00 27 998.6
20210619210120 97 157 0.0 0.0 0.00 0.00 0.00 28 998.8
20210619204551 98 219 0.0 0.0 0.00 0.00 0.00 29 998.8
20210619203039 98 234 0.0 0.0 0.00 0.00 0.00 29 999.0
20210619201554 98 194 0.0 0.0 0.00 0.00 0.00 27 999.2
20210619200141 98 144 0.0 0.0 0.00 0.00 0.00 25 999.3